{"data":{"norad_id":68867,"intl_designator":"2026-095D","name":"KUIPER-00364","alt_names":[],"object_type":"PAYLOAD","status":"ACTIVE","operator":null,"country":"US","launch_date":"2026-04-28","launch_site_code":"AFETR","launch_vehicle":null,"mission":null,"orbit_class":"UNKNOWN","rcs_meters":null,"size_class":null,"mass_kg":null,"dimensions":null,"purposes":[],"wikipedia_slug":null,"has_3d_model":false,"image_url":null,"decayed_at":null,"tle_current":{"epoch":"2026-05-25T00:03:41.271264Z","epoch_age_seconds":72060,"freshness":"FRESH","line1":"1 68867U 26095D   26145.00256101  .00026825  00000+0  71010-3 0  9994","line2":"2 68867  51.8816 354.4048 0003370 197.5487 162.5384 15.38179187  4168","mean_motion":15.38179187,"eccentricity":0.000337,"inclination_deg":51.8816,"raan_deg":354.4048,"arg_perigee_deg":197.5487,"mean_anomaly_deg":162.5384,"bstar":0.0007101,"rev_number":416,"period_min":93.617181416199,"perigee_km":449.1921186519,"apogee_km":453.79528974653,"semimajor_km":6829.6307041992,"source":"CELESTRAK","updated_at":"2026-05-25T13:38:08.645902Z"}}}